Regional Weather Roundup
Issued by NWS

Home | Current Version | Previous Version | Text Only | Print | Product List | Glossary Off
Versions: 1 2 3 4 5 6 7 8 9 10 11 12 13 14 15 16 17 18 19 20 21 22 23 24 25 26 27 28 29 30 31 32 33 34 35 36 37 38 39 40 41 42 43 44 45 46 47 48 49 50

533
ASUS44 KJAN 152303
RWRMS

MISSISSIPPI HOURLY WEATHER ROUNDUP
NATIONAL WEATHER SERVICE JACKSON MS
600 PM CDT TUE APR 15 2014

NOTE: "FAIR: INDICATES FEW OR NO CLOUDS BELOW 12,000 FEET WITH NO
SIGNIFICANT WEATHER AND/OR OBSTRUCTIONS TO VISIBILITY.

MSZ001>002-007>008-010>013-018>021-025>028-034>036-160000-
NORTHWEST MISSISSIPPI

CITY           SKY/WX    TMP DP  RH WIND       PRES   REMARKS
CLARKSDALE       N/A     50  32  50 N13G22    30.20F
CLEVELAND      FAIR      50  32  50 N15G22    30.18S
GREENWOOD      SUNNY     51  28  41 N9        30.17R
GREENVILLE     SUNNY     51  31  46 N14       30.18R
GRENADA        FAIR      50  23  34 N9G17     30.16R
OLIVE BRANCH   SUNNY     46  27  46 NE16      30.18F
OXFORD         FAIR      48  21  34 N9G16     30.18S
TUNICA         CLEAR     48  30  49 N13G18    30.20F
$$

MSZ003>006-009-014>017-022>024-029>033-037>039-160000-
NORTHEAST MISSISSIPPI

CITY           SKY/WX    TMP DP  RH WIND       PRES   REMARKS
BELMONT        FAIR      49  23  35 N10G16    30.13F
COLUMBUS AFB   SUNNY     53  23  32 N17G24    30.11S
CORINTH        FAIR      48  23  37 N9        30.17R
GOLDN TRIANGLE SUNNY     52  27  37 N16G22    30.14S
STARKVILLE     FAIR      52  25  35 N10G21    30.11S
TUPELO         SUNNY     50  22  33 N18       30.13F
$$

MSZ040-058-160000-
CENTRAL MISSISSIPPI

CITY           SKY/WX    TMP DP  RH WIND       PRES   REMARKS
JACKSON INTL   SUNNY     53  28  38 NW9G20    30.15R
JACKSON HAWKNS SUNNY     53  25  33 N8        30.15R
MERIDIAN KEY   SUNNY     54  25  32 N9G20     30.10R
MERIDIAN NAS   SUNNY     53  23  31 N9        30.11R
RAYMOND        FAIR      52  48  87 N8G16     30.16R
VICKSBURG      SUNNY     54  32  43 N10G18    30.19R
$$

MSZ059>079-160000-
SOUTH MISSISSIPPI

CITY           SKY/WX    TMP DP  RH WIND       PRES   REMARKS
BROOKHAVEN     FAIR      54  30  40 NW8       30.15R
COLUMBIA       FAIR      55  28  35 MISG      30.11R
HATTIESBURG    SUNNY     58  27  30 N10       30.10R
MCCOMB         SUNNY     55  27  34 N15       30.13R
NATCHEZ          N/A     54  30  40 NW12G21   30.17R
PINE BELT      SUNNY     55  27  33 N12       30.11R
$$

MSZ080>082-160000-
COASTAL MISSISSIPPI

CITY           SKY/WX    TMP DP  RH WIND       PRES   REMARKS
BAY ST LOUIS   SUNNY     61  27  27 N9        30.09R
BILOXI         MOSUNNY   59  30  33 N15G22    30.07R
PASCAGOULA     MOSUNNY   59  33  37 N16       30.06R
GULFPORT       MOSUNNY   62  27  26 N15       30.07R
$$



USA.gov is the U.S. government's official web portal to all federal, state and local government web resources and services.